Tracking 32140 objects as of 13-Nov-2025
HD Live streaming from Space Station
objects crossing your sky now

PSLV R/B

Track PSLV R/B now!
10-day predictions


NORAD ID: 37842
Int'l Code: 2011-058E
Perigee: 783.8 km
Apogee: 869.1 km
Inclination: 19.8 °
Period: 101.3 minutes
Semi major axis: 7197 km
RCS: 0.1259 m2 (medium)
Launch date: October 12, 2011
Source: India (IND)
Launch site: SRIHARIKOTA (SRI)

Note: This is a ROCKET BODY
Your satellite tracking list
Your tracking list is empty




NASA's NSSDC Master Catalog

Two Line Element Set (TLE):
1 37842U 11058E   25317.61540623  .00000607  00000-0  14586-3 0  9994
2 37842  19.7934  63.2887 0059265 104.9333 255.7641 14.21779166732830
Source of the keplerian elements: AFSPC